|
NORAD ID: 6847 Int'l Code: 1973-069C
Perigee: 1,440.0 km
Apogee: 1,494.5 km
Inclination: 74.0 °
Period: 115.1 minutes
Semi major axis: 7838 km
Launch date: October 2, 1973
Source: Commonwealth of Independent States (former USSR) (CIS)
Two Line Element Set (TLE):
1 06847U 73069C 13144.40358501 .00000001 00000-0 11235-3 0 5889
2 06847 073.9999 118.5100 0034780 328.1138 183.2396 12.51040840810542
Source:
NASA's NSSDC Master Catalog entry for COSMOS 590
|